This is the latest recevied weather packets stored in our database for station/object YO6FNF-10. If no packets are shown the sender has not sent any weather packets the latest 10 day(s).
| Time | Temp. | Humidity | Pressure | Rain* | Wind** | Luminosity | Snow |
|---|---|---|---|---|---|---|---|
| 1777755530 | 3.33° C | 75% | 1024.8 hPa | - | - | - | - |
| 1777754630 | 3.89° C | 75% | 1024.8 hPa | - | - | - | - |
| 1777753729 | 4.44° C | 76% | 1024.8 hPa | - | - | - | - |
| 1777752829 | 5° C | 76% | 1024.7 hPa | - | - | - | - |
| 1777751929 | 5° C | 75% | 1024.7 hPa | - | - | - | - |
| 1777751029 | 5° C | 75% | 1024.7 hPa | - | - | - | - |
| 1777750129 | 5.56° C | 73% | 1024.6 hPa | - | - | - | - |
| 1777749229 | 5.56° C | 74% | 1024.7 hPa | - | - | - | - |
| 1777748328 | 5.56° C | 74% | 1024.7 hPa | - | - | - | - |
| 1777747428 | 5.56° C | 73% | 1024.5 hPa | - | - | - | - |
| 1777746528 | 6.11° C | 75% | 1024.4 hPa | - | - | - | - |
| 1777745628 | 6.11° C | 72% | 1024.4 hPa | - | - | - | - |
| 1777744728 | 6.67° C | 71% | 1024.1 hPa | - | - | - | - |
| 1777743827 | 6.67° C | 69% | 1024.1 hPa | - | - | - | - |
| 1777742927 | 7.22° C | 67% | 1024 hPa | - | - | - | - |
| 1777742027 | 7.22° C | 66% | 1023.8 hPa | - | - | - | - |
| 1777741127 | 7.22° C | 64% | 1024.1 hPa | - | - | - | - |
| 1777735788 | 7.78° C | 65% | 1024 hPa | - | - | - | - |
| 1777734887 | 7.78° C | 65% | 1024.3 hPa | - | - | - | - |
| 1777733987 | 7.78° C | 66% | 1024.3 hPa | - | - | - | - |
| 1777733087 | 7.22° C | 67% | 1024.2 hPa | - | - | - | - |
| 1777732187 | 7.78° C | 64% | 1024.4 hPa | - | - | - | - |
| 1777731287 | 9.44° C | 55% | 1024 hPa | - | - | - | - |
| 1777730387 | 10° C | 59% | 1024 hPa | - | - | - | - |
| 1777729486 | 10° C | 58% | 1023.9 hPa | - | - | - | - |
* Rain since midnight (hover to see other rain measurements)
** Current wind speed in m/s (hover to see current wind gust speed)